QPF
0.00 0.00 0.00 0.00 0.00 0.00 0.00 0.00 0.00 0.00 0.00 0.00 0.00 0.00 0.01 0.01 0.02 0.02 0.02 0.02 0.02 0.02 0.02 0.04 0.06 0.07 0.07 0.06 0.06 0.06 0.07 0.12 0.12 0.15 0.20 0.23 0.27 0.31 0.34 0.30 0.22 0.18 0.16 0.17
0.00 0.00 0.00 0.00 0.00 0.00 0.00 0.00 0.00 0.00 0.01 0.01 0.01 0.01 0.01 0.01 0.02 0.02 0.02 0.02 0.02 0.03 0.04 0.06 0.09 0.10 0.11 0.13 0.14 0.13 0.11 0.10 0.10 0.13 0.19 0.24 0.26 0.26 0.28 0.28 0.24 0.19 0.16 0.14
0.00 0.00 0.00 0.00 0.00 0.00 0.00 0.00 0.00 0.00 0.01 0.01 0.01 0.02 0.02 0.02 0.02 0.03 0.03 0.03 0.02 0.03 0.03 0.05 0.09 0.10 0.11 0.11 0.11 0.14 0.16 0.15 0.14 0.16 0.23 0.26 0.27 0.28 0.29 0.27 0.22 0.17 0.14 0.10
0.00 0.00 0.00 0.00 0.00 0.00 0.00 0.00 0.00 0.00 0.00 0.01 0.01 0.01 0.02 0.03 0.02 0.02 0.03 0.02 0.02 0.02 0.03 0.03 0.04 0.04 0.05 0.05 0.05 0.06 0.07 0.09 0.11 0.14 0.15 0.18 0.20 0.23 0.25 0.22 0.18 0.15 0.13 0.09
0.00 0.00 0.00 0.00 0.00 0.00 0.00 0.00 0.00 0.00 0.00 0.00 0.00 0.00 0.01 0.02 0.02 0.02 0.02 0.02 0.02 0.02 0.03 0.04 0.03 0.04 0.04 0.04 0.03 0.04 0.04 0.03 0.05 0.08 0.11 0.12 0.13 0.14 0.12 0.12 0.12 0.12 0.12 0.11
0.00 0.00 0.00 0.00 0.00 0.00 0.00 0.00 0.00 0.00 0.00 0.00 0.00 0.00 0.00 0.01 0.01 0.02 0.04 0.06 0.04 0.04 0.04 0.03 0.02 0.03 0.03 0.02 0.01 0.01 0.01 0.02 0.05 0.06 0.08 0.10 0.11 0.10 0.08 0.08 0.09 0.10 0.11 0.11
0.00 0.00 0.00 0.00 0.00 0.00 0.00 0.00 0.00 0.00 0.00 0.00 0.00 0.00 0.00 0.00 0.01 0.02 0.04 0.05 0.05 0.04 0.03 0.03 0.02 0.03 0.02 0.02 0.01 0.01 0.01 0.02 0.03 0.05 0.05 0.06 0.07 0.07 0.05 0.05 0.06 0.08 0.09 0.09
0.00 0.00 0.00 0.00 0.00 0.00 0.00 0.00 0.00 0.00 0.00 0.00 0.00 0.00 0.00 0.00 0.01 0.01 0.02 0.03 0.04 0.03 0.03 0.03 0.02 0.02 0.02 0.01 0.01 0.01 0.01 0.02 0.03 0.03 0.03 0.03 0.04 0.04 0.04 0.05 0.06 0.06 0.08 0.08
0.00 0.00 0.00 0.00 0.00 0.00 0.00 0.00 0.00 0.00 0.00 0.00 0.00 0.00 0.00 0.01 0.01 0.02 0.03 0.03 0.03 0.03 0.03 0.02 0.01 0.01 0.01 0.01 0.01 0.01 0.01 0.02 0.02 0.02 0.02 0.02 0.03 0.03 0.03 0.04 0.05 0.05 0.05 0.07
0.00 0.00 0.00 0.00 0.00 0.00 0.00 0.00 0.00 0.00 0.00 0.00 0.00 0.00 0.00 0.00 0.01 0.01 0.02 0.03 0.04 0.03 0.03 0.02 0.01 0.00 0.00 0.00 0.00 0.01 0.01 0.01 0.01 0.01 0.01 0.01 0.02 0.03 0.03 0.03 0.04 0.04 0.03 0.04
0.00 0.00 0.00 0.00 0.00 0.00 0.00 0.00 0.00 0.00 0.00 0.00 0.00 0.00 0.00 0.00 0.00 0.00 0.01 0.02 0.03 0.03 0.02 0.02 0.01 0.00 0.00 0.00 0.00 0.00 0.00 0.00 0.00 0.01 0.01 0.01 0.02 0.02 0.02 0.02 0.03 0.03 0.02 0.03
0.00 0.00 0.00 0.00 0.00 0.01 0.00 0.00 0.00 0.00 0.00 0.00 0.00 0.00 0.00 0.00 0.00 0.00 0.00 0.01 0.01 0.01 0.01 0.01 0.01 0.01 0.00 0.00 0.00 0.00 0.00 0.00 0.00 0.00 0.01 0.01 0.01 0.02 0.02 0.03 0.02 0.02 0.02 0.02
0.00 0.00 0.00 0.00 0.00 0.00 0.00 0.00 0.00 0.00 0.00 0.00 0.00 0.00 0.00 0.00 0.00 0.00 0.01 0.01 0.01 0.01 0.01 0.02 0.02 0.01 0.01 0.00 0.00 0.00 0.00 0.00 0.00 0.00 0.01 0.01 0.01 0.02 0.02 0.03 0.02 0.01 0.01 0.02
0.00 0.00 0.00 0.00 0.00 0.00 0.00 0.00 0.00 0.00 0.00 0.00 0.00 0.00 0.00 0.00 0.01 0.01 0.01 0.01 0.02 0.02 0.02 0.02 0.03 0.02 0.01 0.01 0.00 0.00 0.01 0.00 0.00 0.01 0.01 0.01 0.02 0.02 0.02 0.02 0.03 0.02 0.02 0.03
0.00 0.00 0.00 0.00 0.00 0.00 0.00 0.00 0.00 0.00 0.01 0.00 0.00 0.01 0.01 0.00 0.00 0.01 0.01 0.01 0.01 0.01 0.02 0.02 0.02 0.02 0.02 0.02 0.01 0.01 0.01 0.01 0.01 0.02 0.02 0.02 0.02 0.03 0.03 0.04 0.04 0.02 0.02 0.03
0.00 0.01 0.01 0.01 0.00 0.01 0.00 0.00 0.01 0.00 0.00 0.00 0.01 0.01 0.00 0.00 0.00 0.00 0.01 0.01 0.01 0.01 0.02 0.02 0.03 0.03 0.03 0.03 0.03 0.01 0.01 0.01 0.01 0.02 0.03 0.02 0.02 0.02 0.03 0.03 0.03 0.03 0.03 0.03
0.01 0.01 0.01 0.01 0.00 0.00 0.00 0.00 0.01 0.00 0.00 0.00 0.00 0.00 0.00 0.00 0.00 0.01 0.01 0.01 0.02 0.02 0.02 0.03 0.04 0.04 0.03 0.03 0.03 0.03 0.03 0.02 0.02 0.03 0.03 0.02 0.02 0.03 0.03 0.03 0.02 0.03 0.03 0.02
0.01 0.01 0.01 0.01 0.01 0.01 0.00 0.00 0.01 0.01 0.00 0.00 0.00 0.00 0.00 0.00 0.01 0.01 0.01 0.02 0.02 0.02 0.03 0.04 0.04 0.03 0.03 0.03 0.04 0.04 0.04 0.05 0.04 0.03 0.03 0.02 0.02 0.03 0.04 0.03 0.02 0.03 0.03 0.02
0.01 0.01 0.01 0.00 0.01 0.01 0.00 0.00 0.01 0.01 0.01 0.01 0.01 0.01 0.01 0.01 0.01 0.01 0.02 0.02 0.02 0.03 0.05 0.05 0.04 0.03 0.02 0.02 0.03 0.03 0.04 0.04 0.03 0.03 0.03 0.03 0.02 0.03 0.04 0.04 0.03 0.03 0.03 0.03
0.01 0.01 0.01 0.00 0.00 0.01 0.00 0.00 0.00 0.01 0.01 0.00 0.01 0.01 0.01 0.01 0.02 0.02 0.01 0.01 0.02 0.04 0.04 0.04 0.03 0.02 0.02 0.02 0.02 0.02 0.03 0.03 0.03 0.03 0.03 0.03 0.03 0.03 0.03 0.03 0.03 0.03 0.03 0.03
0.01 0.01 0.01 0.01 0.01 0.01 0.01 0.00 0.01 0.01 0.01 0.00 0.00 0.01 0.01 0.01 0.01 0.01 0.01 0.01 0.02 0.03 0.03 0.03 0.02 0.02 0.02 0.02 0.02 0.03 0.03 0.03 0.02 0.02 0.03 0.03 0.03 0.03 0.02 0.02 0.02 0.02 0.02 0.01
0.02 0.02 0.02 0.01 0.01 0.01 0.01 0.01 0.02 0.01 0.01 0.01 0.01 0.01 0.01 0.01 0.01 0.01 0.01 0.02 0.02 0.03 0.03 0.02 0.02 0.02 0.02 0.03 0.03 0.03 0.03 0.02 0.02 0.02 0.03 0.03 0.03 0.02 0.02 0.01 0.01 0.01 0.01 0.01
0.02 0.02 0.02 0.02 0.02 0.01 0.01 0.01 0.02 0.01 0.01 0.00 0.01 0.01 0.01 0.01 0.01 0.01 0.01 0.02 0.02 0.02 0.02 0.02 0.03 0.03 0.03 0.03 0.02 0.02 0.02 0.02 0.01 0.01 0.02 0.03 0.03 0.02 0.01 0.01 0.01 0.01 0.01 0.00
0.01 0.01 0.02 0.02 0.02 0.01 0.01 0.01 0.01 0.01 0.00 0.00 0.00 0.00 0.00 0.00 0.00 0.01 0.01 0.01 0.02 0.02 0.02 0.02 0.02 0.03 0.03 0.02 0.02 0.02 0.03 0.02 0.03 0.02 0.03 0.04 0.04 0.02 0.01 0.00 0.00 0.00 0.00 0.00
0.00 0.01 0.01 0.02 0.02 0.01 0.01 0.01 0.01 0.00 0.00 0.00 0.00 0.00 0.00 0.00 0.00 0.01 0.01 0.02 0.02 0.01 0.02 0.02 0.02 0.02 0.02 0.02 0.02 0.03 0.03 0.02 0.03 0.03 0.03 0.02 0.02 0.02 0.01 0.00 0.00 0.01 0.01 0.00
0.01 0.01 0.01 0.01 0.01 0.01 0.01 0.01 0.00 0.00 0.00 0.00 0.00 0.00 0.00 0.01 0.01 0.01 0.01 0.01 0.01 0.01 0.01 0.01 0.01 0.01 0.02 0.03 0.03 0.02 0.01 0.01 0.01 0.02 0.02 0.01 0.01 0.01 0.00 0.00 0.00 0.00 0.01 0.00
MSLP
1012.81 1013.39 1013.75 1013.91 1013.91 1013.82 1013.72 1013.70 1013.79 1014.00 1014.31 1014.68 1015.05 1015.36 1015.58 1015.67 1015.66 1015.56 1015.41 1015.24 1015.07 1014.93 1014.81 1014.70 1014.61 1014.51 1014.41 1014.30 1014.21 1014.14 1014.10 1014.12 1014.18 1014.28 1014.43 1014.62 1014.85 1015.11 1015.40 1015.72 1016.05 1016.40 1016.74 1017.06
1013.13 1013.57 1013.78 1013.81 1013.74 1013.63 1013.59 1013.67 1013.90 1014.26 1014.71 1015.18 1015.59 1015.91 1016.08 1016.12 1016.05 1015.91 1015.75 1015.61 1015.50 1015.44 1015.40 1015.36 1015.30 1015.20 1015.06 1014.88 1014.70 1014.54 1014.41 1014.35 1014.35 1014.42 1014.54 1014.71 1014.92 1015.15 1015.40 1015.67 1015.97 1016.28 1016.60 1016.92
1013.28 1013.55 1013.61 1013.54 1013.41 1013.34 1013.38 1013.60 1014.00 1014.52 1015.09 1015.64 1016.07 1016.35 1016.46 1016.41 1016.26 1016.07 1015.90 1015.80 1015.77 1015.81 1015.88 1015.94 1015.94 1015.87 1015.71 1015.47 1015.20 1014.94 1014.71 1014.56 1014.50 1014.52 1014.62 1014.77 1014.95 1015.15 1015.37 1015.61 1015.87 1016.16 1016.46 1016.77
1013.25 1013.34 1013.28 1013.13 1013.00 1013.00 1013.18 1013.58 1014.15 1014.84 1015.53 1016.12 1016.54 1016.75 1016.75 1016.58 1016.32 1016.06 1015.88 1015.81 1015.87 1016.03 1016.24 1016.42 1016.52 1016.49 1016.33 1016.06 1015.72 1015.35 1015.03 1014.79 1014.65 1014.62 1014.67 1014.80 1014.96 1015.15 1015.35 1015.56 1015.79 1016.04 1016.32 1016.62
1013.04 1012.99 1012.83 1012.65 1012.57 1012.69 1013.05 1013.64 1014.42 1015.26 1016.04 1016.66 1017.04 1017.14 1016.99 1016.67 1016.28 1015.94 1015.72 1015.69 1015.84 1016.13 1016.49 1016.82 1017.03 1017.08 1016.95 1016.66 1016.26 1015.81 1015.39 1015.06 1014.84 1014.74 1014.76 1014.86 1015.00 1015.18 1015.36 1015.55 1015.75 1015.98 1016.23 1016.51
1012.73 1012.56 1012.33 1012.17 1012.19 1012.46 1013.02 1013.83 1014.79 1015.77 1016.63 1017.25 1017.55 1017.52 1017.20 1016.71 1016.18 1015.74 1015.49 1015.49 1015.73 1016.15 1016.66 1017.15 1017.50 1017.65 1017.57 1017.29 1016.85 1016.34 1015.84 1015.42 1015.13 1014.97 1014.94 1015.00 1015.13 1015.29 1015.46 1015.63 1015.81 1016.01 1016.24 1016.49
1012.37 1012.11 1011.86 1011.76 1011.89 1012.34 1013.09 1014.10 1015.23 1016.32 1017.22 1017.81 1018.01 1017.83 1017.35 1016.69 1016.02 1015.48 1015.20 1015.24 1015.56 1016.12 1016.79 1017.44 1017.94 1018.21 1018.21 1017.96 1017.52 1016.97 1016.40 1015.91 1015.55 1015.33 1015.25 1015.28 1015.39 1015.53 1015.69 1015.84 1016.00 1016.17 1016.36 1016.59
1012.04 1011.72 1011.49 1011.45 1011.71 1012.31 1013.24 1014.40 1015.64 1016.79 1017.70 1018.22 1018.31 1017.99 1017.36 1016.56 1015.77 1015.18 1014.89 1014.96 1015.38 1016.07 1016.89 1017.70 1018.35 1018.74 1018.84 1018.65 1018.23 1017.67 1017.07 1016.54 1016.12 1015.84 1015.72 1015.72 1015.80 1015.92 1016.06 1016.19 1016.32 1016.46 1016.62 1016.81
1011.82 1011.48 1011.26 1011.29 1011.65 1012.36 1013.39 1014.63 1015.92 1017.07 1017.93 1018.36 1018.34 1017.90 1017.15 1016.26 1015.42 1014.80 1014.53 1014.67 1015.19 1016.00 1016.97 1017.92 1018.71 1019.24 1019.44 1019.33 1018.95 1018.42 1017.82 1017.26 1016.80 1016.49 1016.33 1016.29 1016.34 1016.44 1016.56 1016.67 1016.77 1016.88 1017.00 1017.16
1011.77 1011.41 1011.21 1011.28 1011.69 1012.45 1013.50 1014.73 1015.97 1017.05 1017.80 1018.13 1018.01 1017.48 1016.66 1015.74 1014.91 1014.33 1014.13 1014.36 1014.99 1015.92 1017.01 1018.09 1019.01 1019.65 1019.96 1019.93 1019.63 1019.14 1018.57 1018.02 1017.55 1017.22 1017.03 1016.96 1016.98 1017.06 1017.14 1017.23 1017.30 1017.38 1017.47 1017.59
1011.92 1011.55 1011.36 1011.43 1011.83 1012.54 1013.52 1014.64 1015.74 1016.66 1017.27 1017.47 1017.26 1016.68 1015.87 1014.99 1014.24 1013.77 1013.69 1014.04 1014.78 1015.83 1017.02 1018.20 1019.21 1019.95 1020.35 1020.42 1020.20 1019.78 1019.26 1018.74 1018.29 1017.96 1017.76 1017.67 1017.66 1017.71 1017.76 1017.82 1017.87 1017.92 1017.98 1018.07
1012.23 1011.87 1011.67 1011.71 1012.04 1012.63 1013.44 1014.36 1015.24 1015.95 1016.37 1016.43 1016.15 1015.57 1014.82 1014.07 1013.47 1013.16 1013.24 1013.74 1014.60 1015.74 1017.01 1018.25 1019.32 1020.13 1020.61 1020.76 1020.63 1020.30 1019.85 1019.39 1018.97 1018.66 1018.45 1018.35 1018.32 1018.33 1018.36 1018.39 1018.42 1018.44 1018.48 1018.54
1012.66 1012.31 1012.10 1012.08 1012.28 1012.70 1013.28 1013.93 1014.53 1014.99 1015.20 1015.14 1014.81 1014.27 1013.64 1013.06 1012.67 1012.57 1012.85 1013.50 1014.47 1015.69 1017.00 1018.27 1019.37 1020.21 1020.74 1020.96 1020.91 1020.67 1020.31 1019.92 1019.56 1019.27 1019.08 1018.96 1018.91 1018.91 1018.91 1018.92 1018.93 1018.94 1018.96 1019.01
1013.12 1012.80 1012.57 1012.48 1012.54 1012.75 1013.07 1013.42 1013.73 1013.92 1013.93 1013.75 1013.40 1012.94 1012.47 1012.10 1011.95 1012.09 1012.57 1013.37 1014.45 1015.71 1017.03 1018.29 1019.38 1020.22 1020.77 1021.05 1021.07 1020.92 1020.65 1020.34 1020.04 1019.80 1019.62 1019.51 1019.45 1019.42 1019.41 1019.40 1019.39 1019.40 1019.42 1019.47
1013.53 1013.24 1013.00 1012.84 1012.77 1012.78 1012.84 1012.91 1012.93 1012.87 1012.71 1012.43 1012.09 1011.74 1011.45 1011.32 1011.42 1011.80 1012.47 1013.41 1014.57 1015.84 1017.14 1018.36 1019.40 1020.21 1020.76 1021.07 1021.16 1021.08 1020.90 1020.68 1020.45 1020.25 1020.10 1019.99 1019.93 1019.88 1019.86 1019.84 1019.84 1019.85 1019.88 1019.94
1013.81 1013.56 1013.33 1013.12 1012.94 1012.77 1012.62 1012.44 1012.23 1011.97 1011.67 1011.35 1011.04 1010.81 1010.71 1010.81 1011.14 1011.74 1012.58 1013.63 1014.83 1016.10 1017.34 1018.49 1019.46 1020.22 1020.75 1021.07 1021.21 1021.21 1021.11 1020.96 1020.80 1020.66 1020.53 1020.44 1020.37 1020.32 1020.29 1020.28 1020.28 1020.31 1020.36 1020.45
1013.95 1013.74 1013.51 1013.27 1013.02 1012.73 1012.42 1012.07 1011.69 1011.29 1010.91 1010.57 1010.33 1010.22 1010.30 1010.61 1011.15 1011.92 1012.89 1014.02 1015.23 1016.46 1017.63 1018.68 1019.57 1020.26 1020.76 1021.09 1021.26 1021.32 1021.29 1021.22 1021.13 1021.03 1020.94 1020.86 1020.80 1020.76 1020.73 1020.73 1020.75 1020.80 1020.89 1021.00
1013.97 1013.77 1013.55 1013.30 1013.00 1012.65 1012.24 1011.79 1011.32 1010.86 1010.45 1010.14 1009.98 1010.00 1010.23 1010.71 1011.41 1012.30 1013.36 1014.51 1015.71 1016.88 1017.96 1018.91 1019.71 1020.33 1020.80 1021.12 1021.32 1021.42 1021.46 1021.46 1021.42 1021.38 1021.32 1021.27 1021.22 1021.19 1021.18 1021.20 1021.25 1021.33 1021.45 1021.59
1013.92 1013.71 1013.48 1013.22 1012.90 1012.52 1012.08 1011.60 1011.10 1010.65 1010.27 1010.02 1009.94 1010.08 1010.44 1011.04 1011.84 1012.82 1013.91 1015.06 1016.21 1017.30 1018.29 1019.14 1019.85 1020.42 1020.84 1021.16 1021.38 1021.53 1021.62 1021.67 1021.69 1021.69 1021.67 1021.65 1021.63 1021.62 1021.63 1021.67 1021.75 1021.87 1022.02 1022.20
1013.89 1013.62 1013.35 1013.07 1012.74 1012.36 1011.94 1011.48 1011.02 1010.61 1010.30 1010.13 1010.15 1010.38 1010.83 1011.51 1012.38 1013.38 1014.47 1015.58 1016.67 1017.68 1018.58 1019.34 1019.98 1020.48 1020.88 1021.19 1021.43 1021.61 1021.75 1021.85 1021.92 1021.96 1021.98 1021.99 1022.00 1022.01 1022.06 1022.13 1022.24 1022.40 1022.58 1022.79
1013.92 1013.56 1013.23 1012.90 1012.57 1012.20 1011.81 1011.41 1011.03 1010.70 1010.48 1010.40 1010.51 1010.82 1011.34 1012.06 1012.94 1013.94 1014.99 1016.05 1017.06 1017.99 1018.80 1019.50 1020.07 1020.53 1020.91 1021.21 1021.46 1021.67 1021.84 1021.98 1022.09 1022.17 1022.23 1022.28 1022.32 1022.37 1022.44 1022.55 1022.70 1022.88 1023.09 1023.32
1014.03 1013.55 1013.13 1012.76 1012.40 1012.06 1011.72 1011.39 1011.10 1010.88 1010.76 1010.78 1010.97 1011.34 1011.90 1012.64 1013.50 1014.46 1015.46 1016.45 1017.39 1018.24 1018.98 1019.62 1020.14 1020.57 1020.93 1021.23 1021.49 1021.71 1021.91 1022.08 1022.22 1022.34 1022.43 1022.51 1022.59 1022.68 1022.79 1022.93 1023.10 1023.31 1023.54 1023.79
1014.21 1013.59 1013.07 1012.64 1012.26 1011.94 1011.66 1011.42 1011.24 1011.13 1011.12 1011.24 1011.50 1011.92 1012.50 1013.22 1014.06 1014.96 1015.90 1016.82 1017.68 1018.46 1019.15 1019.73 1020.22 1020.63 1020.97 1021.27 1021.53 1021.77 1021.98 1022.17 1022.34 1022.48 1022.61 1022.72 1022.84 1022.96 1023.10 1023.27 1023.47 1023.69 1023.94 1024.19
1014.35 1013.62 1013.01 1012.53 1012.15 1011.86 1011.65 1011.51 1011.45 1011.46 1011.55 1011.76 1012.09 1012.55 1013.13 1013.83 1014.62 1015.47 1016.34 1017.18 1017.98 1018.70 1019.34 1019.88 1020.34 1020.73 1021.06 1021.35 1021.61 1021.85 1022.07 1022.27 1022.45 1022.62 1022.78 1022.93 1023.07 1023.23 1023.40 1023.59 1023.81 1024.04 1024.29 1024.54
1014.36 1013.55 1012.89 1012.39 1012.03 1011.80 1011.68 1011.66 1011.71 1011.85 1012.06 1012.35 1012.74 1013.23 1013.82 1014.49 1015.23 1016.02 1016.81 1017.59 1018.33 1019.00 1019.59 1020.10 1020.53 1020.90 1021.22 1021.50 1021.75 1021.98 1022.20 1022.40 1022.60 1022.78 1022.96 1023.14 1023.32 1023.50 1023.70 1023.91 1024.14 1024.38 1024.62 1024.85
1014.13 1013.30 1012.64 1012.17 1011.87 1011.74 1011.74 1011.84 1012.04 1012.30 1012.63 1013.01 1013.46 1013.98 1014.56 1015.20 1015.90 1016.62 1017.35 1018.06 1018.74 1019.35 1019.91 1020.38 1020.79 1021.14 1021.44 1021.70 1021.94 1022.16 1022.37 1022.57 1022.78 1022.98 1023.17 1023.37 1023.58 1023.79 1024.00 1024.23 1024.46 1024.70 1024.94 1025.16
Thickness
5695 5684 5679 5686 5691 5694 5692 5689 5686 5691 5700 5694 5688 5687 5690 5693 5692 5689 5687 5686 5684 5683 5682 5682 5682 5683 5684 5685 5685 5684 5684 5685 5685 5683 5682 5681 5679 5680 5679 5679 5679 5678 5679 5679
5681 5680 5692 5696 5695 5694 5690 5685 5684 5687 5696 5690 5681 5679 5685 5686 5685 5684 5681 5678 5676 5674 5674 5673 5672 5673 5674 5674 5674 5675 5676 5676 5676 5676 5675 5674 5671 5671 5670 5671 5671 5670 5669 5670
5680 5689 5699 5696 5692 5690 5689 5686 5686 5684 5684 5684 5678 5669 5674 5678 5680 5679 5676 5673 5670 5668 5664 5663 5662 5662 5663 5664 5664 5666 5666 5666 5666 5666 5665 5665 5662 5662 5661 5661 5661 5661 5661 5662
5683 5694 5698 5696 5693 5693 5686 5698 5695 5687 5674 5664 5671 5654 5666 5670 5670 5671 5669 5666 5663 5660 5657 5654 5653 5652 5652 5653 5654 5655 5656 5656 5656 5656 5656 5655 5653 5651 5650 5650 5650 5651 5652 5654
5685 5695 5696 5694 5699 5700 5695 5700 5693 5684 5671 5660 5661 5653 5657 5665 5664 5666 5665 5661 5657 5653 5650 5646 5644 5643 5643 5643 5643 5644 5645 5645 5646 5646 5646 5645 5643 5641 5640 5640 5640 5641 5642 5643
5690 5702 5704 5703 5707 5706 5700 5689 5679 5667 5660 5651 5658 5651 5652 5660 5667 5666 5662 5658 5653 5647 5643 5640 5637 5635 5634 5634 5634 5634 5634 5634 5634 5635 5635 5634 5633 5631 5630 5629 5629 5629 5631 5633
5683 5695 5706 5710 5700 5699 5692 5671 5652 5649 5640 5644 5656 5652 5654 5667 5670 5668 5661 5655 5649 5643 5637 5633 5629 5626 5625 5624 5624 5623 5623 5623 5622 5623 5623 5623 5622 5621 5619 5618 5618 5618 5620 5621
5669 5673 5698 5706 5701 5691 5685 5676 5652 5642 5637 5639 5650 5649 5659 5668 5668 5666 5660 5651 5644 5637 5631 5626 5622 5619 5617 5615 5613 5612 5612 5611 5611 5611 5611 5611 5611 5610 5609 5607 5607 5608 5608 5610
5668 5674 5700 5707 5708 5698 5681 5672 5671 5649 5642 5636 5641 5652 5661 5662 5660 5657 5652 5645 5638 5632 5626 5621 5616 5612 5609 5606 5603 5602 5601 5601 5600 5600 5600 5600 5600 5599 5598 5597 5597 5598 5598 5600
5682 5676 5692 5701 5703 5694 5689 5672 5657 5646 5635 5633 5642 5646 5650 5658 5655 5652 5646 5641 5633 5626 5620 5613 5608 5604 5601 5597 5594 5593 5591 5590 5589 5589 5590 5589 5588 5588 5587 5587 5587 5587 5587 5589
5686 5673 5680 5688 5687 5684 5679 5670 5656 5643 5643 5632 5630 5643 5667 5665 5661 5653 5646 5638 5630 5622 5614 5606 5600 5596 5592 5589 5586 5584 5582 5580 5579 5579 5578 5578 5577 5577 5577 5576 5576 5576 5577 5577
5680 5667 5662 5675 5688 5692 5687 5675 5660 5651 5644 5636 5632 5643 5668 5665 5661 5653 5643 5633 5624 5615 5607 5599 5593 5588 5584 5580 5577 5575 5573 5571 5569 5569 5568 5567 5566 5566 5565 5565 5565 5566 5566 5566
5678 5664 5652 5658 5667 5679 5679 5674 5665 5653 5641 5631 5631 5647 5661 5658 5653 5647 5638 5628 5618 5608 5600 5591 5585 5580 5575 5572 5568 5566 5563 5561 5560 5559 5558 5557 5555 5555 5554 5554 5554 5555 5555 5555
5680 5661 5655 5652 5658 5670 5672 5672 5664 5655 5641 5637 5643 5652 5655 5651 5646 5638 5630 5621 5612 5602 5593 5584 5577 5571 5567 5562 5559 5556 5553 5552 5551 5549 5547 5546 5545 5544 5543 5543 5543 5543 5544 5544
5673 5661 5664 5667 5674 5674 5673 5673 5668 5663 5657 5649 5655 5654 5655 5650 5644 5634 5624 5614 5605 5595 5586 5578 5569 5562 5557 5552 5549 5546 5543 5542 5540 5539 5537 5535 5534 5533 5533 5533 5532 5532 5533 5533
5662 5659 5662 5664 5672 5672 5669 5672 5669 5666 5662 5657 5655 5652 5652 5645 5637 5627 5618 5609 5600 5591 5581 5571 5563 5555 5549 5544 5540 5536 5533 5532 5530 5528 5527 5525 5524 5524 5523 5523 5522 5522 5522 5522
5653 5654 5650 5649 5662 5666 5658 5667 5668 5666 5664 5659 5652 5651 5643 5636 5630 5622 5613 5605 5596 5585 5575 5565 5556 5549 5542 5536 5532 5528 5525 5523 5521 5519 5518 5516 5515 5514 5514 5513 5513 5513 5512 5512
5651 5645 5638 5641 5651 5645 5659 5673 5672 5666 5661 5658 5653 5645 5639 5632 5622 5614 5607 5598 5588 5578 5568 5559 5550 5541 5535 5529 5525 5521 5517 5515 5512 5511 5509 5508 5507 5505 5505 5505 5504 5503 5503 5503
5654 5646 5636 5632 5637 5644 5660 5668 5666 5661 5657 5654 5646 5637 5628 5621 5613 5603 5597 5590 5581 5571 5561 5552 5543 5535 5529 5523 5519 5515 5511 5509 5507 5505 5503 5501 5500 5498 5497 5497 5496 5495 5495 5495
5648 5646 5636 5632 5636 5636 5653 5667 5669 5661 5648 5649 5642 5632 5623 5617 5606 5597 5589 5581 5571 5562 5553 5544 5536 5529 5523 5518 5514 5510 5506 5503 5501 5499 5497 5495 5494 5492 5491 5490 5489 5488 5488 5487
5640 5637 5633 5631 5632 5640 5657 5664 5665 5644 5643 5646 5638 5629 5620 5612 5603 5592 5582 5573 5564 5554 5545 5538 5530 5524 5518 5513 5509 5505 5502 5499 5497 5494 5492 5490 5488 5487 5485 5484 5483 5483 5482 5481
5636 5634 5632 5628 5630 5637 5656 5658 5651 5646 5645 5639 5631 5623 5613 5602 5593 5584 5575 5565 5556 5547 5539 5532 5525 5518 5513 5509 5506 5502 5498 5495 5493 5491 5488 5485 5484 5483 5481 5479 5478 5477 5477 5476
5635 5637 5636 5636 5638 5646 5648 5648 5647 5643 5638 5631 5624 5615 5606 5596 5586 5577 5567 5558 5549 5542 5534 5527 5521 5514 5509 5506 5503 5499 5495 5493 5490 5487 5484 5482 5480 5478 5477 5476 5474 5473 5473 5472
5637 5639 5637 5638 5643 5645 5645 5643 5641 5638 5633 5627 5619 5610 5601 5591 5580 5571 5561 5552 5544 5537 5530 5523 5517 5511 5506 5502 5500 5497 5494 5491 5488 5485 5482 5479 5477 5475 5474 5473 5472 5472 5471 5470
5636 5637 5635 5636 5640 5642 5642 5638 5635 5630 5626 5619 5611 5604 5595 5586 5575 5566 5556 5548 5541 5533 5526 5520 5515 5510 5505 5501 5499 5496 5493 5490 5487 5484 5481 5478 5476 5474 5472 5471 5470 5471 5470 5470
5636 5637 5637 5639 5643 5639 5637 5634 5631 5625 5619 5613 5605 5595 5587 5581 5571 5561 5553 5545 5538 5530 5524 5518 5513 5509 5505 5502 5499 5496 5493 5491 5487 5484 5481 5478 5475 5474 5472 5471 5470 5471 5471 5471